sat.trackr.live / text

‹ back to catalog

STARLINK-36363

NORAD 67890 · 2026-035M

PAYLOAD ACTIVE UNKNOWN

§ Identity

Operator
Country
US
Launch date
2026-02-21
Launch site
AFWTR
Launch vehicle
Mass (kg)
RCS (m²)

Purposes: comms

External: N2YO · Heavens-Above · Gunter

§ Orbital elements

Epoch: 2026-09-19T13:05:31.243200Z

Period
93.91 min
Inclination
97.2845°
Eccentricity
0.0001971
Mean motion
15.33433664 rev/d
Perigee alt
464.2 km
Apogee alt
466.9 km
Semi-major
6,843.7 km
B*
4.5532e-4
RAAN
194.3619°
Arg perigee
88.3970°
Mean anomaly
271.7499°
Rev number
3,369

§ Raw data

STARLINK-363631 67890U 26035M   26262.54550050  .00014648  00000+0  45532-3 0  99922 67890  97.2845 194.3619 0001971  88.3970 271.7499 15.33433664 33691

JSON: /api/v1/satellites/67890 · /tle

For live sub-satellite position, see the globe view (requires WebGL).

§ Visibility from observer

Set your observer location to see the next 7 days of passes ≥ 10°. The values pass through the URL so the page stays shareable.

No JS? Fill the form by hand. The geolocation button needs JavaScript.